sat.trackr.live / text

‹ back to catalog

SITRO-AIS 17

NORAD 61789 · 2024-199BG

PAYLOAD ACTIVE UNKNOWN

§ Identity

Operator
Country
CIS
Launch date
2024-11-04
Launch site
VOSTO
Launch vehicle
Mass (kg)
RCS (m²)

External: N2YO · Heavens-Above · Gunter

§ Orbital elements

Epoch: 2026-09-22T20:59:52.732032Z

Period
96.11 min
Inclination
97.3176°
Eccentricity
0.0007361
Mean motion
14.98349292 rev/d
Perigee alt
566.9 km
Apogee alt
577.1 km
Semi-major
6,950.1 km
B*
1.4688e-4
RAAN
99.4677°
Arg perigee
102.7180°
Mean anomaly
257.4867°
Rev number
14,666

§ Raw data

SITRO-AIS 171 61789U 24199BG  26265.87491588  .00001697  00000+0  14688-3 0  99992 61789  97.3176  99.4677 0007361 102.7180 257.4867 14.98349292146667

JSON: /api/v1/satellites/61789 · /tle

For live sub-satellite position, see the globe view (requires WebGL).

§ Visibility from observer

Set your observer location to see the next 7 days of passes ≥ 10°. The values pass through the URL so the page stays shareable.

No JS? Fill the form by hand. The geolocation button needs JavaScript.

§ Radio — SatNOGS DB

ModeDescriptionDownlinkUplink
GMSK USP Mode U - GMSK2k4 - USP 401.095 MHz

1 transmitter · refreshed weekly from db.satnogs.org